| time (UTC) | temp F | wind direction | speed MPH | gust MPH | rain 1hr in | rain 24hr in | rain mn in | humidity % | barometer mb |
| 20260502194039 | 57 | 115 | 1.0 | 2.0 | 0.00 | 0.10 | 0.10 | 52 | 1012.6 |
| 20260502193536 | 55 | 114 | 3.0 | 3.0 | 0.00 | 0.10 | 0.10 | 52 | 1013.0 |
| 20260502193033 | 55 | 112 | 0.0 | 0.0 | 0.00 | 0.10 | 0.10 | 55 | 1013.1 |
| 20260502192528 | 56 | 93 | 1.0 | 1.0 | 0.00 | 0.10 | 0.10 | 58 | 1013.0 |
| 20260502192026 | 55 | 260 | 4.0 | 6.0 | 0.00 | 0.10 | 0.10 | 57 | 1012.7 |
| 20260502191523 | 55 | 103 | 1.0 | 2.0 | 0.00 | 0.10 | 0.10 | 58 | 1012.9 |
| 20260502191021 | 58 | 326 | 2.0 | 3.0 | 0.00 | 0.10 | 0.10 | 54 | 1013.1 |
| 20260502190518 | 56 | 134 | 2.0 | 2.0 | 0.00 | 0.10 | 0.10 | 55 | 1013.2 |
| 20260502190015 | 56 | 103 | 0.0 | 1.0 | 0.00 | 0.10 | 0.10 | 55 | 1013.1 |
| 20260502185509 | 55 | 140 | 1.0 | 2.0 | 0.00 | 0.10 | 0.10 | 58 | 1013.3 |
| 20260502185007 | 55 | 102 | 1.0 | 1.0 | 0.00 | 0.10 | 0.10 | 56 | 1013.4 |
| 20260502184502 | 55 | 117 | 1.0 | 2.0 | 0.00 | 0.10 | 0.10 | 57 | 1013.3 |
| 20260502183959 | 53 | 100 | 0.0 | 1.0 | 0.00 | 0.10 | 0.10 | 61 | 1013.5 |
| 20260502183455 | 53 | 95 | 1.0 | 1.0 | 0.00 | 0.10 | 0.10 | 63 | 1013.4 |
| 20260502182950 | 54 | 4 | 2.0 | 3.0 | 0.00 | 0.10 | 0.10 | 59 | 1013.4 |
| 20260502182446 | 55 | 53 | 1.0 | 1.0 | 0.00 | 0.10 | 0.10 | 62 | 1013.6 |
| 20260502181942 | 56 | 122 | 3.0 | 3.0 | 0.00 | 0.10 | 0.10 | 62 | 1013.5 |
| 20260502181440 | 56 | 106 | 0.0 | 0.0 | 0.00 | 0.10 | 0.10 | 60 | 1013.6 |
| 20260502180938 | 54 | 112 | 1.0 | 1.0 | 0.00 | 0.10 | 0.10 | 66 | 1013.6 |
| 20260502180435 | 51 | 147 | 1.0 | 1.0 | 0.00 | 0.10 | 0.10 | 67 | 1013.6 |
| 20260502170355 | 55 | 44 | 1.0 | 1.0 | 0.00 | 0.10 | 0.10 | 70 | 1014.1 |
| 20260502164342 | 51 | 25 | 3.0 | 3.0 | 0.00 | 0.10 | 0.10 | 71 | 1014.2 |
| 20260502163838 | 50 | 172 | 3.0 | 3.0 | 0.00 | 0.10 | 0.10 | 79 | 1014.1 |
| 20260502163334 | 50 | 190 | 1.0 | 2.0 | 0.00 | 0.10 | 0.10 | 81 | 1014.2 |
| 20260502162832 | 49 | 311 | 2.0 | 2.0 | 0.00 | 0.10 | 0.10 | 82 | 1014.4 |
| 20260502162328 | 47 | 218 | 2.0 | 4.0 | 0.00 | 0.10 | 0.10 | 87 | 1014.4 |
| 20260502161826 | 47 | 115 | 1.0 | 1.0 | 0.00 | 0.10 | 0.10 | 88 | 1014.2 |
| 20260502161321 | 48 | 340 | 4.0 | 7.0 | 0.00 | 0.10 | 0.10 | 85 | 1014.5 |
| 20260502160820 | 49 | 108 | 1.0 | 2.0 | 0.00 | 0.10 | 0.10 | 84 | 1014.5 |
| 20260502160318 | 49 | 110 | 0.0 | 1.0 | 0.00 | 0.10 | 0.10 | 82 | 1014.1 |
| 20260502152253 | 48 | 94 | 2.0 | 2.0 | 0.00 | 0.10 | 0.10 | 85 | 1014.2 |
| 20260502151750 | 48 | 53 | 2.0 | 3.0 | 0.00 | 0.10 | 0.10 | 85 | 1014.1 |
| 20260502151247 | 49 | 293 | 4.0 | 6.0 | 0.00 | 0.10 | 0.10 | 84 | 1014.0 |
| 20260502150745 | 49 | 77 | 2.0 | 3.0 | 0.00 | 0.10 | 0.10 | 84 | 1014.2 |
| 20260502150242 | 49 | 112 | 1.0 | 1.0 | 0.00 | 0.10 | 0.10 | 85 | 1014.2 |
| 20260502130630 | 48 | 342 | 2.0 | 2.0 | 0.00 | 0.10 | 0.10 | 90 | 1014.0 |
| 20260502130128 | 47 | 112 | 1.0 | 1.0 | 0.00 | 0.10 | 0.10 | 91 | 1013.8 |
| 20260502123614 | 46 | 112 | 0.0 | 1.0 | 0.00 | 0.10 | 0.10 | 99 | 1014.0 |
| 20260502123110 | 46 | 123 | 0.0 | 1.0 | 0.00 | 0.10 | 0.10 | 99 | 1013.9 |
| 20260502122606 | 46 | 82 | 1.0 | 1.0 | 0.00 | 0.10 | 0.10 | 99 | 1014.2 |
| 20260502122103 | 45 | 125 | 0.0 | 1.0 | 0.00 | 0.10 | 0.10 | 99 | 1014.2 |
| 20260502121601 | 46 | 127 | 0.0 | 1.0 | 0.00 | 0.10 | 0.10 | 99 | 1014.2 |
| 20260502121058 | 45 | 108 | 1.0 | 1.0 | 0.00 | 0.10 | 0.10 | 99 | 1013.9 |
| 20260502120554 | 45 | 101 | 1.0 | 1.0 | 0.00 | 0.10 | 0.10 | 99 | 1014.1 |
| 20260502115550 | 44 | 111 | 0.0 | 0.0 | 0.00 | 0.10 | 0.10 | 99 | 1014.2 |
| 20260502115045 | 44 | 113 | 0.0 | 0.0 | 0.00 | 0.10 | 0.10 | 99 | 1014.1 |
| 20260502114542 | 44 | 97 | 0.0 | 1.0 | 0.00 | 0.10 | 0.10 | 99 | 1014.1 |
| 20260502114038 | 44 | 110 | 1.0 | 1.0 | 0.00 | 0.10 | 0.10 | 99 | 1014.1 |
| 20260502113537 | 44 | 112 | 0.0 | 0.0 | 0.00 | 0.10 | 0.10 | 99 | 1014.1 |
| 20260502113035 | 44 | 112 | 0.0 | 0.0 | 0.00 | 0.10 | 0.10 | 99 | 1013.8 |
| 20260502112532 | 44 | 101 | 0.0 | 0.0 | 0.00 | 0.10 | 0.10 | 99 | 1014.0 |
| 20260502112030 | 44 | 116 | 0.0 | 0.0 | 0.00 | 0.10 | 0.10 | 99 | 1013.9 |
| 20260502111527 | 44 | 115 | 0.0 | 0.0 | 0.00 | 0.10 | 0.10 | 99 | 1013.8 |
| 20260502111024 | 44 | 109 | 0.0 | 0.0 | 0.00 | 0.10 | 0.10 | 99 | 1014.0 |
| 20260502110521 | 44 | 123 | 0.0 | 1.0 | 0.00 | 0.10 | 0.10 | 99 | 1013.8 |
| 20260502110019 | 44 | 112 | 0.0 | 0.0 | 0.00 | 0.10 | 0.10 | 99 | 1013.9 |
| 20260502105516 | 44 | 113 | 0.0 | 0.0 | 0.00 | 0.10 | 0.10 | 99 | 1013.7 |
| 20260502105014 | 43 | 115 | 0.0 | 0.0 | 0.00 | 0.10 | 0.10 | 99 | 1013.5 |
| 20260502104511 | 43 | 117 | 0.0 | 0.0 | 0.00 | 0.10 | 0.10 | 99 | 1013.5 |
| 20260502104009 | 43 | 115 | 0.0 | 0.0 | 0.00 | 0.10 | 0.10 | 99 | 1013.4 |
| 20260502103506 | 43 | 116 | 0.0 | 0.0 | 0.00 | 0.10 | 0.10 | 99 | 1013.2 |
| 20260502103004 | 43 | 115 | 0.0 | 0.0 | 0.00 | 0.10 | 0.10 | 99 | 1013.4 |
| 20260502102459 | 43 | 116 | 0.0 | 0.0 | 0.05 | 0.10 | 0.10 | 99 | 1013.6 |
| 20260502101956 | 43 | 115 | 0.0 | 0.0 | 0.05 | 0.10 | 0.10 | 99 | 1013.4 |
| 20260502101454 | 43 | 114 | 0.0 | 0.0 | 0.00 | 0.09 | 0.09 | 99 | 1013.4 |
| 20260502100953 | 43 | 110 | 0.0 | 0.0 | 0.07 | 0.09 | 0.09 | 99 | 1013.6 |
| 20260502100451 | 43 | 112 | 0.0 | 0.0 | 0.12 | 0.09 | 0.09 | 99 | 1013.6 |
| 20260502091426 | 44 | 93 | 0.0 | 0.0 | 0.00 | 0.04 | 0.04 | 97 | 1013.4 |
| 20260502090922 | 44 | 103 | 0.0 | 0.0 | 0.05 | 0.04 | 0.04 | 97 | 1013.2 |
| 20260502090420 | 44 | 114 | 0.0 | 1.0 | 0.12 | 0.04 | 0.04 | 97 | 1013.3 |
| 20260502071314 | 45 | 109 | 1.0 | 1.0 | 0.00 | 0.00 | 0.00 | 94 | 1013.6 |
| 20260502070813 | 45 | 119 | 1.0 | 2.0 | 0.00 | 0.00 | 0.00 | 93 | 1013.7 |
| 20260502070310 | 45 | 112 | 0.0 | 0.0 | 0.00 | 0.00 | 0.00 | 93 | 1013.5 |
| 20260502065809 | 45 | 94 | 0.0 | 1.0 | 0.00 | 0.00 | 0.00 | 93 | 1013.7 |
| 20260502065306 | 45 | 110 | 1.0 | 1.0 | 0.00 | 0.00 | 0.00 | 93 | 1013.4 |
| 20260502064804 | 46 | 95 | 0.0 | 1.0 | 0.00 | 0.00 | 0.00 | 93 | 1013.7 |
| 20260502064302 | 45 | 115 | 0.0 | 0.0 | 0.00 | 0.00 | 0.00 | 93 | 1013.8 |
| 20260502063759 | 46 | 114 | 0.0 | 0.0 | 0.00 | 0.00 | 0.00 | 93 | 1013.5 |
| 20260502063257 | 46 | 116 | 0.0 | 0.0 | 0.00 | 0.00 | 0.00 | 93 | 1013.7 |
| 20260502062753 | 46 | 112 | 0.0 | 0.0 | 0.00 | 0.00 | 0.00 | 93 | 1013.7 |
| 20260502062251 | 46 | 102 | 0.0 | 0.0 | 0.00 | 0.00 | 0.00 | 93 | 1013.7 |
| 20260502061750 | 46 | 108 | 0.0 | 0.0 | 0.00 | 0.00 | 0.00 | 93 | 1013.7 |
| 20260502061248 | 46 | 107 | 0.0 | 0.0 | 0.00 | 0.00 | 0.00 | 92 | 1013.9 |
| 20260502060741 | 46 | 80 | 1.0 | 1.0 | 0.00 | 0.00 | 0.00 | 92 | 1013.7 |
| 20260502060237 | 46 | 113 | 0.0 | 0.0 | 0.00 | 0.00 | 0.00 | 92 | 1013.5 |
| 20260502055736 | 46 | 107 | 0.0 | 0.0 | 0.00 | 0.00 | 0.00 | 92 | 1013.7 |
| 20260502055233 | 46 | 106 | 0.0 | 0.0 | 0.00 | 0.00 | 0.00 | 91 | 1013.8 |
| 20260502054732 | 46 | 108 | 0.0 | 1.0 | 0.00 | 0.00 | 0.00 | 89 | 1014.0 |
| 20260502054229 | 47 | 82 | 1.0 | 2.0 | 0.00 | 0.00 | 0.00 | 86 | 1014.2 |
| 20260502053727 | 47 | 116 | 0.0 | 0.0 | 0.00 | 0.00 | 0.00 | 84 | 1014.1 |
| 20260502053224 | 47 | 112 | 0.0 | 0.0 | 0.00 | 0.00 | 0.00 | 83 | 1014.0 |
| 20260502052722 | 47 | 98 | 0.0 | 0.0 | 0.00 | 0.00 | 0.00 | 84 | 1014.0 |
| 20260502052220 | 47 | 108 | 0.0 | 0.0 | 0.00 | 0.00 | 0.00 | 84 | 1013.9 |
| 20260502051717 | 47 | 84 | 0.0 | 0.0 | 0.00 | 0.00 | 0.00 | 84 | 1013.9 |
| 20260502051215 | 0 | 0.0 | 0.0 | 0.00 | 0.00 | 0.00 | 1014.0 | ||
| 20260502050711 | 48 | 109 | 0.0 | 0.0 | 0.00 | 0.00 | 0.00 | 82 | 1013.6 |
| 20260502050208 | 48 | 109 | 0.0 | 0.0 | 0.00 | 0.00 | 0.00 | 82 | 1013.7 |
| 20260502045705 | 48 | 109 | 0.0 | 0.0 | 0.00 | 0.00 | 0.00 | 82 | 1013.5 |
| 20260502045202 | 48 | 109 | 0.0 | 1.0 | 0.00 | 0.00 | 0.00 | 82 | 1013.6 |
| 20260502044658 | 48 | 111 | 0.0 | 0.0 | 0.00 | 0.00 | 0.00 | 82 | 1013.9 |
| 20260502044154 | 48 | 110 | 0.0 | 0.0 | 0.00 | 0.00 | 0.00 | 82 | 1013.8 |
| 20260502043653 | 48 | 117 | 0.0 | 0.0 | 0.00 | 0.00 | 0.00 | 81 | 1013.9 |
| 20260502043150 | 48 | 117 | 0.0 | 0.0 | 0.00 | 0.00 | 0.00 | 79 | 1014.0 |
| 20260502042649 | 48 | 111 | 0.0 | 0.0 | 0.00 | 0.00 | 0.00 | 78 | 1014.0 |
| 20260502042146 | 48 | 109 | 0.0 | 0.0 | 0.00 | 0.00 | 0.00 | 77 | 1013.7 |
| 20260502041644 | 48 | 109 | 0.0 | 0.0 | 0.00 | 0.00 | 0.00 | 77 | 1013.9 |
| 20260502041141 | 48 | 109 | 0.0 | 0.0 | 0.00 | 0.00 | 0.00 | 78 | 1013.8 |
| 20260502040638 | 48 | 105 | 0.0 | 1.0 | 0.00 | 0.00 | 0.00 | 77 | 1013.6 |
| 20260502040135 | 48 | 105 | 1.0 | 1.0 | 0.00 | 0.00 | 0.00 | 78 | 1013.9 |
| 20260502035631 | 48 | 110 | 0.0 | 0.0 | 0.00 | 0.00 | 0.00 | 78 | 1014.1 |
| 20260502035128 | 48 | 112 | 0.0 | 1.0 | 0.00 | 0.00 | 0.00 | 78 | 1013.8 |
| 20260502034626 | 48 | 115 | 0.0 | 0.0 | 0.00 | 0.00 | 0.00 | 78 | 1013.8 |
| 20260502034124 | 48 | 110 | 0.0 | 0.0 | 0.00 | 0.00 | 0.00 | 79 | 1014.0 |
| 20260502033622 | 48 | 112 | 0.0 | 0.0 | 0.00 | 0.00 | 0.00 | 79 | 1013.6 |
| 20260502033119 | 48 | 110 | 0.0 | 1.0 | 0.00 | 0.00 | 0.00 | 78 | 1013.7 |
| 20260502032615 | 48 | 125 | 0.0 | 1.0 | 0.00 | 0.00 | 0.00 | 79 | 1014.0 |
| 20260502032112 | 48 | 112 | 0.0 | 0.0 | 0.00 | 0.00 | 0.00 | 78 | 1014.1 |
| 20260502031610 | 49 | 119 | 0.0 | 0.0 | 0.00 | 0.00 | 0.00 | 78 | 1014.1 |
| 20260502031107 | 49 | 123 | 0.0 | 1.0 | 0.00 | 0.00 | 0.00 | 77 | 1014.2 |
| 20260502030606 | 49 | 126 | 1.0 | 1.0 | 0.00 | 0.00 | 0.00 | 77 | 1014.1 |
| 20260502030103 | 48 | 114 | 0.0 | 0.0 | 0.00 | 0.00 | 0.00 | 77 | 1014.0 |
| 20260502025600 | 48 | 130 | 0.0 | 1.0 | 0.00 | 0.00 | 0.00 | 78 | 1014.0 |
| 20260502025058 | 49 | 113 | 0.0 | 0.0 | 0.00 | 0.00 | 0.00 | 78 | 1013.8 |
| 20260502024556 | 48 | 115 | 0.0 | 0.0 | 0.00 | 0.00 | 0.00 | 78 | 1014.0 |
| 20260502024054 | 48 | 109 | 0.0 | 0.0 | 0.00 | 0.00 | 0.00 | 78 | 1014.0 |
| 20260502023551 | 49 | 109 | 0.0 | 0.0 | 0.00 | 0.00 | 0.00 | 78 | 1013.8 |
| 20260502023049 | 49 | 110 | 0.0 | 0.0 | 0.00 | 0.00 | 0.00 | 77 | 1014.1 |
| 20260502022545 | 49 | 112 | 0.0 | 1.0 | 0.00 | 0.00 | 0.00 | 77 | 1013.8 |
| 20260502022043 | 48 | 103 | 1.0 | 1.0 | 0.00 | 0.00 | 0.00 | 78 | 1014.2 |
| 20260502021540 | 48 | 111 | 0.0 | 0.0 | 0.00 | 0.00 | 0.00 | 78 | 1014.1 |
| 20260502021037 | 49 | 111 | 1.0 | 1.0 | 0.00 | 0.00 | 0.00 | 78 | 1013.9 |
| 20260502020534 | 49 | 112 | 1.0 | 1.0 | 0.00 | 0.00 | 0.00 | 77 | 1013.9 |
| 20260502020031 | 49 | 111 | 0.0 | 1.0 | 0.00 | 0.00 | 0.00 | 77 | 1014.0 |
| 20260502015529 | 49 | 111 | 1.0 | 1.0 | 0.00 | 0.00 | 0.00 | 76 | 1014.0 |
| 20260502015025 | 49 | 110 | 1.0 | 1.0 | 0.00 | 0.00 | 0.00 | 74 | 1014.1 |
| 20260502014522 | 49 | 109 | 0.0 | 1.0 | 0.00 | 0.00 | 0.00 | 73 | 1014.0 |
| 20260502014019 | 50 | 111 | 0.0 | 0.0 | 0.00 | 0.00 | 0.00 | 72 | 1014.1 |
| 20260502013515 | 50 | 111 | 1.0 | 1.0 | 0.00 | 0.00 | 0.00 | 71 | 1013.9 |
| 20260502013011 | 50 | 109 | 0.0 | 1.0 | 0.00 | 0.00 | 0.00 | 70 | 1014.0 |
| 20260502012509 | 51 | 113 | 0.0 | 0.0 | 0.00 | 0.00 | 0.00 | 69 | 1014.0 |
| 20260502012006 | 51 | 116 | 0.0 | 0.0 | 0.00 | 0.00 | 0.00 | 68 | 1014.2 |
| 20260502011502 | 51 | 119 | 0.0 | 0.0 | 0.00 | 0.00 | 0.00 | 66 | 1014.2 |
| 20260502010959 | 51 | 108 | 1.0 | 1.0 | 0.00 | 0.00 | 0.00 | 61 | 1014.1 |
| 20260502010456 | 51 | 114 | 0.0 | 0.0 | 0.00 | 0.00 | 0.00 | 60 | 1014.0 |
| 20260502005952 | 51 | 109 | 0.0 | 0.0 | 0.00 | 0.00 | 0.00 | 60 | 1014.0 |
| 20260502005450 | 51 | 109 | 0.0 | 0.0 | 0.00 | 0.00 | 0.00 | 62 | 1014.0 |
| 20260502004948 | 51 | 100 | 0.0 | 1.0 | 0.00 | 0.00 | 0.00 | 60 | 1013.8 |
| 20260502004443 | 52 | 116 | 0.0 | 0.0 | 0.00 | 0.00 | 0.00 | 60 | 1013.8 |
| 20260502003941 | 52 | 118 | 0.0 | 0.0 | 0.00 | 0.00 | 0.00 | 58 | 1013.7 |
| 20260502003438 | 52 | 87 | 1.0 | 1.0 | 0.00 | 0.00 | 0.00 | 56 | 1013.8 |
| 20260502002934 | 53 | 112 | 0.0 | 0.0 | 0.00 | 0.00 | 0.00 | 56 | 1013.7 |
| 20260502002432 | 53 | 113 | 0.0 | 0.0 | 0.00 | 0.00 | 0.00 | 56 | 1013.5 |
| 20260502001929 | 53 | 71 | 0.0 | 1.0 | 0.00 | 0.00 | 0.00 | 54 | 1013.6 |
| 20260502001426 | 54 | 169 | 2.0 | 2.0 | 0.00 | 0.00 | 0.00 | 54 | 1013.7 |
| 20260502000924 | 54 | 292 | 2.0 | 3.0 | 0.00 | 0.00 | 0.00 | 55 | 1013.4 |
| 20260502000424 | 54 | 111 | 0.0 | 1.0 | 0.00 | 0.00 | 0.00 | 56 | 1013.3 |
| 20260501235918 | 54 | 99 | 1.0 | 1.0 | 0.00 | 0.00 | 0.00 | 54 | 1013.4 |
| 20260501235414 | 54 | 126 | 1.0 | 1.0 | 0.00 | 0.00 | 0.00 | 56 | 1013.5 |
| 20260501234909 | 54 | 211 | 2.0 | 3.0 | 0.00 | 0.00 | 0.00 | 53 | 1013.1 |
| 20260501234406 | 55 | 90 | 1.0 | 1.0 | 0.00 | 0.00 | 0.00 | 55 | 1013.0 |
| 20260501233905 | 56 | 327 | 4.0 | 6.0 | 0.00 | 0.00 | 0.00 | 49 | 1013.0 |
| 20260501233402 | 57 | 110 | 1.0 | 2.0 | 0.00 | 0.00 | 0.00 | 48 | 1012.7 |
| 20260501232857 | 57 | 81 | 1.0 | 1.0 | 0.00 | 0.00 | 0.00 | 46 | 1012.5 |
| 20260501232355 | 57 | 300 | 2.0 | 3.0 | 0.00 | 0.00 | 0.00 | 43 | 1012.7 |
| 20260501231852 | 58 | 48 | 2.0 | 2.0 | 0.00 | 0.00 | 0.00 | 45 | 1012.5 |
| 20260501231350 | 58 | 106 | 1.0 | 1.0 | 0.00 | 0.00 | 0.00 | 45 | 1012.4 |
| 20260501230848 | 58 | 34 | 1.0 | 1.0 | 0.00 | 0.00 | 0.00 | 47 | 1012.2 |
| 20260501230347 | 58 | 107 | 1.0 | 2.0 | 0.00 | 0.00 | 0.00 | 43 | 1012.5 |
| 20260501225844 | 59 | 116 | 1.0 | 1.0 | 0.00 | 0.00 | 0.00 | 45 | 1012.2 |
| 20260501225342 | 59 | 110 | 0.0 | 0.0 | 0.00 | 0.00 | 0.00 | 45 | 1012.2 |
| 20260501224837 | 59 | 112 | 0.0 | 0.0 | 0.00 | 0.00 | 0.00 | 45 | 1012.1 |
| 20260501224335 | 58 | 111 | 0.0 | 1.0 | 0.00 | 0.00 | 0.00 | 45 | 1012.0 |
| 20260501223831 | 59 | 263 | 1.0 | 2.0 | 0.00 | 0.00 | 0.00 | 41 | 1012.1 |
| 20260501223327 | 59 | 119 | 1.0 | 2.0 | 0.00 | 0.00 | 0.00 | 40 | 1012.0 |
| 20260501222823 | 60 | 107 | 0.0 | 1.0 | 0.00 | 0.00 | 0.00 | 45 | 1012.3 |
| 20260501222321 | 60 | 110 | 0.0 | 1.0 | 0.00 | 0.00 | 0.00 | 42 | 1012.1 |
| 20260501221817 | 60 | 110 | 0.0 | 0.0 | 0.00 | 0.00 | 0.00 | 43 | 1012.1 |
| 20260501221314 | 60 | 76 | 0.0 | 1.0 | 0.00 | 0.00 | 0.00 | 41 | 1012.0 |
| 20260501220813 | 60 | 10 | 2.0 | 3.0 | 0.00 | 0.00 | 0.00 | 42 | 1012.1 |
| 20260501220309 | 60 | 67 | 2.0 | 3.0 | 0.00 | 0.00 | 0.00 | 39 | 1012.2 |
| 20260501215806 | 60 | 120 | 1.0 | 1.0 | 0.00 | 0.00 | 0.00 | 44 | 1012.2 |
| 20260501215305 | 63 | 5 | 1.0 | 2.0 | 0.00 | 0.00 | 0.00 | 39 | 1012.3 |
| 20260501214757 | 65 | 104 | 2.0 | 2.0 | 0.00 | 0.00 | 0.00 | 36 | 1012.2 |
| 20260501214253 | 65 | 98 | 2.0 | 2.0 | 0.00 | 0.00 | 0.00 | 37 | 1012.2 |
| 20260501213749 | 66 | 300 | 3.0 | 6.0 | 0.00 | 0.00 | 0.00 | 36 | 1011.9 |
| 20260501213246 | 65 | 84 | 2.0 | 2.0 | 0.00 | 0.00 | 0.00 | 37 | 1012.0 |
| 20260501212742 | 66 | 82 | 3.0 | 3.0 | 0.00 | 0.00 | 0.00 | 35 | 1012.0 |
| 20260501212238 | 63 | 107 | 1.0 | 1.0 | 0.00 | 0.00 | 0.00 | 41 | 1012.0 |
| 20260501211736 | 63 | 323 | 4.0 | 6.0 | 0.00 | 0.00 | 0.00 | 35 | 1012.0 |
| 20260501211233 | 62 | 247 | 4.0 | 6.0 | 0.00 | 0.00 | 0.00 | 36 | 1012.2 |
| 20260501210730 | 64 | 296 | 4.0 | 6.0 | 0.00 | 0.00 | 0.00 | 36 | 1012.1 |
| 20260501210226 | 66 | 119 | 2.0 | 4.0 | 0.00 | 0.00 | 0.00 | 36 | 1012.0 |
| 20260501205723 | 64 | 267 | 3.0 | 3.0 | 0.00 | 0.00 | 0.00 | 39 | 1012.1 |
| 20260501205220 | 65 | 110 | 2.0 | 2.0 | 0.00 | 0.00 | 0.00 | 38 | 1012.0 |
| 20260501204717 | 65 | 59 | 2.0 | 3.0 | 0.00 | 0.00 | 0.00 | 39 | 1012.0 |
| 20260501204214 | 62 | 120 | 3.0 | 4.0 | 0.00 | 0.00 | 0.00 | 39 | 1012.2 |
| 20260501203709 | 62 | 91 | 2.0 | 4.0 | 0.00 | 0.00 | 0.00 | 38 | 1012.2 |
| 20260501203207 | 64 | 132 | 2.0 | 2.0 | 0.00 | 0.00 | 0.00 | 38 | 1012.3 |
| 20260501202704 | 66 | 109 | 1.0 | 1.0 | 0.00 | 0.00 | 0.00 | 38 | 1012.2 |
| 20260501202201 | 66 | 355 | 2.0 | 3.0 | 0.00 | 0.00 | 0.00 | 36 | 1012.2 |
| 20260501201658 | 66 | 43 | 1.0 | 1.0 | 0.00 | 0.00 | 0.00 | 41 | 1012.2 |
| 20260501201154 | 64 | 182 | 2.0 | 3.0 | 0.00 | 0.00 | 0.00 | 36 | 1012.0 |
| 20260501200651 | 62 | 41 | 1.0 | 2.0 | 0.00 | 0.00 | 0.00 | 39 | 1012.2 |
| 20260501200149 | 63 | 320 | 6.0 | 9.0 | 0.00 | 0.00 | 0.00 | 36 | 1012.2 |
| 20260501195646 | 62 | 130 | 2.0 | 3.0 | 0.00 | 0.00 | 0.00 | 43 | 1012.1 |
| 20260501195141 | 64 | 205 | 2.0 | 3.0 | 0.00 | 0.00 | 0.00 | 40 | 1012.1 |
| 20260501194637 | 62 | 158 | 1.0 | 1.0 | 0.00 | 0.00 | 0.00 | 34 | 1012.3 |